TimeCDT,TemperatureF,Dew PointF,Humidity,Sea Level PressureIn,VisibilityMPH,Wind Direction,Wind SpeedMPH,Gust SpeedMPH,PrecipitationIn,Events,Conditions,WindDirDegrees,DateUTC
12:15 AM,60.6,41.4,49,29.97,10.0,SSE,11.5,19.6,N/A,,Clear,160,2013-10-08 05:15:00
12:35 AM,60.3,41.5,50,29.97,10.0,South,10.4,17.3,N/A,,Clear,170,2013-10-08 05:35:00
12:55 AM,59.9,41.4,50,29.97,10.0,South,10.4,-,N/A,,Clear,170,2013-10-08 05:55:00
1:15 AM,59.2,41.5,52,29.97,10.0,South,10.4,18.4,N/A,,Clear,170,2013-10-08 06:15:00
1:35 AM,58.8,41.7,53,29.97,10.0,South,11.5,18.4,N/A,,Clear,180,2013-10-08 06:35:00
1:55 AM,59.0,41.5,52,29.97,10.0,South,11.5,17.3,N/A,,Clear,180,2013-10-08 06:55:00
2:15 AM,58.6,41.4,53,29.97,10.0,South,11.5,17.3,N/A,,Clear,180,2013-10-08 07:15:00
2:35 AM,58.5,41.4,53,29.96,10.0,South,11.5,19.6,N/A,,Clear,180,2013-10-08 07:35:00
2:55 AM,58.5,41.2,53,29.96,10.0,South,11.5,-,N/A,,Clear,180,2013-10-08 07:55:00
3:15 AM,58.5,41.0,52,29.96,10.0,South,13.8,20.7,N/A,,Clear,170,2013-10-08 08:15:00
3:35 AM,58.1,41.0,53,29.96,10.0,South,13.8,18.4,N/A,,Clear,170,2013-10-08 08:35:00
3:55 AM,57.9,41.0,53,29.96,10.0,South,11.5,17.3,N/A,,Clear,170,2013-10-08 08:55:00
4:15 AM,57.6,41.0,54,29.96,10.0,South,12.7,16.1,N/A,,Clear,170,2013-10-08 09:15:00
4:35 AM,56.8,41.4,56,29.96,10.0,South,11.5,16.1,N/A,,Clear,170,2013-10-08 09:35:00
4:55 AM,56.5,41.4,57,29.96,10.0,SSE,6.9,16.1,N/A,,Clear,160,2013-10-08 09:55:00
5:15 AM,55.6,41.5,59,29.97,10.0,SSE,8.1,-,N/A,,Clear,160,2013-10-08 10:15:00
5:35 AM,55.4,41.7,60,29.96,10.0,SSE,9.2,-,N/A,,Clear,150,2013-10-08 10:35:00
5:55 AM,55.0,41.9,61,29.97,10.0,South,8.1,-,N/A,,Clear,170,2013-10-08 10:55:00
6:15 AM,54.9,41.9,62,29.97,10.0,SSE,8.1,-,N/A,,Clear,160,2013-10-08 11:15:00
6:35 AM,54.7,42.1,62,29.97,10.0,SSE,6.9,-,N/A,,Clear,160,2013-10-08 11:35:00
6:55 AM,54.1,42.3,64,29.97,10.0,SE,8.1,-,N/A,,Clear,140,2013-10-08 11:55:00
7:15 AM,54.5,42.3,63,29.96,10.0,SSE,10.4,-,N/A,,Clear,160,2013-10-08 12:15:00
7:35 AM,54.7,42.3,63,29.96,10.0,SSE,10.4,-,N/A,,Clear,150,2013-10-08 12:35:00
7:55 AM,55.4,42.4,62,29.96,10.0,SSE,9.2,-,N/A,,Clear,150,2013-10-08 12:55:00
8:15 AM,56.3,42.6,60,29.96,10.0,SSE,12.7,16.1,N/A,,Clear,160,2013-10-08 13:15:00
8:35 AM,57.0,42.8,59,29.96,10.0,SSE,9.2,17.3,N/A,,Clear,160,2013-10-08 13:35:00
8:55 AM,58.1,43.0,57,29.96,10.0,SSE,12.7,18.4,N/A,,Clear,160,2013-10-08 13:55:00
9:15 AM,59.0,43.2,56,29.96,10.0,SSE,13.8,17.3,N/A,,Clear,160,2013-10-08 14:15:00
9:35 AM,60.3,43.7,54,29.96,10.0,South,13.8,-,N/A,,Clear,170,2013-10-08 14:35:00
9:55 AM,62.2,43.7,51,29.96,10.0,South,11.5,-,N/A,,Clear,170,2013-10-08 14:55:00
10:15 AM,64.4,43.2,46,29.96,10.0,SSE,17.3,21.9,N/A,,Clear,160,2013-10-08 15:15:00
10:35 AM,66.0,42.6,43,29.96,10.0,South,18.4,28.8,N/A,,Clear,180,2013-10-08 15:35:00
10:55 AM,67.1,42.6,41,29.96,10.0,South,16.1,24.2,N/A,,Clear,170,2013-10-08 15:55:00
11:15 AM,68.5,42.8,39,29.95,10.0,South,17.3,25.3,N/A,,Clear,170,2013-10-08 16:15:00
11:35 AM,69.8,43.2,38,29.94,10.0,South,16.1,26.5,N/A,,Clear,170,2013-10-08 16:35:00
11:55 AM,71.1,43.9,38,29.94,10.0,South,19.6,26.5,N/A,,Clear,170,2013-10-08 16:55:00
12:15 PM,72.7,44.2,36,29.93,10.0,South,16.1,24.2,N/A,,Clear,170,2013-10-08 17:15:00
12:35 PM,73.6,44.2,35,29.93,10.0,South,21.9,28.8,N/A,,Clear,180,2013-10-08 17:35:00
12:55 PM,75.2,45.1,34,29.92,10.0,South,18.4,25.3,N/A,,Clear,180,2013-10-08 17:55:00
1:15 PM,75.6,45.3,34,29.92,10.0,South,17.3,26.5,N/A,,Clear,170,2013-10-08 18:15:00
1:35 PM,76.5,45.9,34,29.91,10.0,South,16.1,32.2,N/A,,Clear,170,2013-10-08 18:35:00
1:55 PM,77.4,46.2,33,29.90,10.0,SSE,18.4,26.5,N/A,,Clear,160,2013-10-08 18:55:00
2:15 PM,77.5,45.7,32,29.89,10.0,South,19.6,27.6,N/A,,Clear,170,2013-10-08 19:15:00
2:35 PM,77.4,45.7,32,29.89,10.0,South,18.4,31.1,N/A,,Clear,170,2013-10-08 19:35:00
2:55 PM,78.3,45.9,32,29.88,10.0,South,21.9,26.5,N/A,,Clear,170,2013-10-08 19:55:00
3:15 PM,77.9,45.9,32,29.88,10.0,South,17.3,29.9,N/A,,Clear,180,2013-10-08 20:15:00
3:35 PM,78.4,45.9,32,29.87,10.0,South,20.7,31.1,N/A,,Clear,180,2013-10-08 20:35:00
3:55 PM,78.8,46.4,32,29.87,10.0,South,19.6,28.8,N/A,,Clear,170,2013-10-08 20:55:00
4:15 PM,78.3,46.2,32,29.87,10.0,SSE,21.9,27.6,N/A,,Clear,160,2013-10-08 21:15:00
4:35 PM,78.4,46.4,32,29.87,10.0,South,21.9,28.8,N/A,,Clear,170,2013-10-08 21:35:00
4:55 PM,77.5,46.2,33,29.87,10.0,South,19.6,28.8,N/A,,Clear,170,2013-10-08 21:55:00
5:15 PM,76.5,45.9,34,29.86,10.0,South,19.6,31.1,N/A,,Clear,170,2013-10-08 22:15:00
5:35 PM,75.7,46.0,35,29.87,10.0,South,17.3,23.0,N/A,,Clear,170,2013-10-08 22:35:00
5:55 PM,74.5,47.1,38,29.87,10.0,SSE,11.5,19.6,N/A,,Clear,150,2013-10-08 22:55:00
6:15 PM,73.8,46.9,38,29.86,10.0,SSE,12.7,20.7,N/A,,Clear,150,2013-10-08 23:15:00
6:35 PM,72.7,46.9,40,29.87,10.0,SSE,15.0,19.6,N/A,,Clear,150,2013-10-08 23:35:00
6:55 PM,71.8,45.9,39,29.87,10.0,SSE,15.0,21.9,N/A,,Clear,150,2013-10-08 23:55:00
7:15 PM,70.5,45.5,41,29.87,10.0,SE,16.1,21.9,N/A,,Clear,140,2013-10-09 00:15:00
7:35 PM,69.6,45.3,42,29.88,10.0,SE,16.1,23.0,N/A,,Clear,140,2013-10-09 00:35:00
7:55 PM,68.7,45.5,43,29.88,10.0,SSE,15.0,23.0,N/A,,Clear,150,2013-10-09 00:55:00
8:15 PM,68.0,45.5,44,29.89,10.0,SSE,13.8,23.0,N/A,,Clear,150,2013-10-09 01:15:00
8:35 PM,67.5,45.0,44,29.89,10.0,SSE,17.3,21.9,N/A,,Clear,150,2013-10-09 01:35:00
8:55 PM,67.1,45.1,45,29.89,10.0,SSE,19.6,25.3,N/A,,Clear,150,2013-10-09 01:55:00
9:15 PM,66.6,44.6,45,29.89,10.0,SSE,20.7,25.3,N/A,,Clear,150,2013-10-09 02:15:00
9:35 PM,66.4,44.6,45,29.91,10.0,SSE,19.6,23.0,N/A,,Clear,160,2013-10-09 02:35:00
9:55 PM,65.5,45.0,47,29.91,10.0,SSE,18.4,28.8,N/A,,Clear,150,2013-10-09 02:55:00
10:15 PM,64.9,45.0,48,29.92,10.0,SSE,17.3,26.5,N/A,,Clear,150,2013-10-09 03:15:00
10:35 PM,64.4,44.8,49,29.92,10.0,SSE,15.0,20.7,N/A,,Clear,160,2013-10-09 03:35:00
10:55 PM,63.7,45.1,51,29.93,10.0,SSE,15.0,20.7,N/A,,Clear,160,2013-10-09 03:55:00
11:15 PM,63.1,45.5,53,29.93,10.0,SSE,12.7,19.6,N/A,,Clear,160,2013-10-09 04:15:00
11:35 PM,62.2,45.7,55,29.94,10.0,SSE,13.8,19.6,N/A,,Clear,160,2013-10-09 04:35:00
11:55 PM,61.9,45.9,56,29.94,10.0,SSE,13.8,19.6,N/A,,Clear,150,2013-10-09 04:55:00